sat.trackr.live / text

‹ back to catalog

ASTRA 3B

NORAD 36581 · 2010-021A

PAYLOAD ACTIVE UNKNOWN

§ Identity

Operator
Country
SES
Launch date
2010-05-21
Launch site
FRGUI
Launch vehicle
Mass (kg)
RCS (m²)
8.17

Purposes: comms

External: N2YO · Heavens-Above · Gunter

§ Orbital elements

Epoch: 2026-05-25T03:51:16.622784Z

Period
1,436.04 min
Inclination
1.4109°
Eccentricity
0.0004141
Mean motion
1.00275483 rev/d
Perigee alt
35,768.1 km
Apogee alt
35,803.0 km
Semi-major
42,163.7 km
B*
0.0000e+0
RAAN
83.8143°
Arg perigee
344.2390°
Mean anomaly
256.0553°
Rev number
5,863

§ Raw data

ASTRA 3B1 36581U 10021A   26145.16060906  .00000136  00000+0  00000+0 0  99912 36581   1.4109  83.8143 0004141 344.2390 256.0553  1.00275483 58630

JSON: /api/v1/satellites/36581 · /tle

For live sub-satellite position, see the globe view (requires WebGL).

§ Visibility from observer

Set your observer location to see the next 7 days of passes ≥ 10°. The values pass through the URL so the page stays shareable.

No JS? Fill the form by hand. The geolocation button needs JavaScript.